When you browse on this site, cookies collect data to enhance your experience and personalize the content and advertising you see.
Visit our Privacy Policy to learn more. By continuing to use the site, you agree to this use of cookies and data.

Meteo pe oră la Dziadkowice

Astăzi, 20 Septembrie, Duminică

Timp Temperatura Precipitaţii Vânt Presiune Umiditate
00:00 +11°C° 0 mm 1 m/s 752 mmHg 71%
01:00 +11°C° 0 mm 1 m/s 752 mmHg 76%
02:00 +10°C° 0 mm 1 m/s 752 mmHg 80%
03:00 +10°C° 0 mm 1 m/s 752 mmHg 84%
04:00 +10°C° 0 mm 1 m/s 752 mmHg 88%
05:00 +10°C° 0 mm 1 m/s 752 mmHg 91%
06:00 +11°C° 0 mm 1 m/s 752 mmHg 89%
07:00 +12°C° 0 mm 1 m/s 752 mmHg 87%
08:00 +13°C° 0 mm 2 m/s 753 mmHg 86%
09:00 +15°C° 0 mm 2 m/s 753 mmHg 79%
10:00 +16°C° 0 mm 2 m/s 753 mmHg 72%
11:00 +18°C° 0 mm 2 m/s 753 mmHg 65%
12:00 +19°C° 0 mm 2 m/s 753 mmHg 61%
13:00 +20°C° 0 mm 2 m/s 752 mmHg 57%
14:00 +20°C° 0 mm 2 m/s 752 mmHg 55%
15:00 +20°C° 0 mm 2 m/s 752 mmHg 56%
16:00 +20°C° 0 mm 2 m/s 752 mmHg 58%
17:00 +20°C° 0 mm 2 m/s 751 mmHg 60%
18:00 +18°C° 0 mm 2 m/s 751 mmHg 66%
19:00 +16°C° 0 mm 2 m/s 751 mmHg 73%
20:00 +14°C° 0 mm 2 m/s 751 mmHg 79%
21:00 +14°C° 0 mm 2 m/s 751 mmHg 82%
22:00 +13°C° 0 mm 1 m/s 751 mmHg 85%
23:00 +13°C° 0 mm 1 m/s 751 mmHg 88%

Mâine, 21 Septembrie, Luni

Timp Temperatura Precipitaţii Vânt Presiune Umiditate
00:00 +12°C° 0 mm 2 m/s 751 mmHg 89%
01:00 +12°C° 0 mm 2 m/s 751 mmHg 90%
02:00 +12°C° 0 mm 2 m/s 751 mmHg 91%
03:00 +12°C° 0 mm 2 m/s 751 mmHg 91%
04:00 +10°C° 0 mm 2 m/s 751 mmHg 92%
05:00 +10°C° 0 mm 2 m/s 751 mmHg 93%
06:00 +12°C° 0 mm 2 m/s 751 mmHg 89%
07:00 +12°C° 0 mm 2 m/s 751 mmHg 86%
08:00 +13°C° 0 mm 2 m/s 751 mmHg 83%
09:00 +15°C° 0 mm 2 m/s 751 mmHg 73%
10:00 +18°C° 0 mm 3 m/s 751 mmHg 63%
11:00 +20°C° 0 mm 3 m/s 751 mmHg 52%
12:00 +21°C° 0 mm 3 m/s 750 mmHg 49%
13:00 +22°C° 0 mm 3 m/s 750 mmHg 46%
14:00 +24°C° 0 mm 3 m/s 750 mmHg 42%
15:00 +24°C° 0 mm 3 m/s 750 mmHg 46%
16:00 +23°C° 0 mm 2 m/s 749 mmHg 49%
17:00 +23°C° 0 mm 2 m/s 749 mmHg 52%
18:00 +20°C° 0 mm 2 m/s 749 mmHg 58%
19:00 +18°C° 0 mm 2 m/s 749 mmHg 63%
20:00 +16°C° 0 mm 2 m/s 749 mmHg 68%
21:00 +16°C° 0 mm 2 m/s 749 mmHg 70%
22:00 +15°C° 0 mm 2 m/s 749 mmHg 72%
23:00 +14°C° 0 mm 2 m/s 749 mmHg 73%

Poimâine, 22 Septembrie, Marţi

Timp Temperatura Precipitaţii Vânt Presiune Umiditate
00:00 +14°C° 0 mm 2 m/s 749 mmHg 75%
01:00 +14°C° 0 mm 2 m/s 749 mmHg 76%
02:00 +13°C° 0 mm 2 m/s 748 mmHg 77%
03:00 +13°C° 0 mm 2 m/s 748 mmHg 78%
04:00 +13°C° 0 mm 2 m/s 748 mmHg 78%
05:00 +12°C° 0 mm 2 m/s 748 mmHg 79%
06:00 +13°C° 0 mm 2 m/s 748 mmHg 76%
07:00 +14°C° 0 mm 2 m/s 748 mmHg 72%
08:00 +15°C° 0 mm 1 m/s 748 mmHg 69%
09:00 +17°C° 0 mm 2 m/s 748 mmHg 62%
10:00 +19°C° 0 mm 2 m/s 748 mmHg 56%
11:00 +23°C° 0 mm 2 m/s 748 mmHg 49%
12:00 +24°C° 0 mm 2 m/s 748 mmHg 46%
13:00 +25°C° 0 mm 2 m/s 748 mmHg 42%
14:00 +26°C° 0 mm 2 m/s 747 mmHg 39%
15:00 +25°C° 0 mm 2 m/s 747 mmHg 42%
16:00 +25°C° 0 mm 2 m/s 746 mmHg 46%
17:00 +24°C° 0 mm 2 m/s 746 mmHg 49%
18:00 +21°C° 0 mm 2 m/s 746 mmHg 53%
19:00 +19°C° 0 mm 2 m/s 746 mmHg 57%
20:00 +17°C° 0 mm 2 m/s 746 mmHg 61%
21:00 +17°C° 0 mm 3 m/s 745 mmHg 63%
22:00 +16°C° 0 mm 3 m/s 745 mmHg 65%
23:00 +16°C° 0 mm 3 m/s 745 mmHg 66%

23 Septembrie, Miercuri

Timp Temperatura Precipitaţii Vânt Presiune Umiditate
00:00 +14°C° 0 mm 3 m/s 745 mmHg 70%
01:00 +14°C° 0 mm 3 m/s 745 mmHg 73%
02:00 +14°C° 0 mm 3 m/s 745 mmHg 76%
03:00 +13°C° 0 mm 3 m/s 744 mmHg 77%
04:00 +13°C° 0 mm 3 m/s 744 mmHg 78%
05:00 +13°C° 0 mm 3 m/s 744 mmHg 80%
06:00 +14°C° 0 mm 3 m/s 744 mmHg 76%
07:00 +16°C° 0 mm 3 m/s 743 mmHg 73%
08:00 +15°C° 0 mm 4 m/s 743 mmHg 69%
09:00 +18°C° 0 mm 4 m/s 743 mmHg 63%
10:00 +20°C° 0 mm 4 m/s 743 mmHg 57%
11:00 +22°C° 0 mm 4 m/s 743 mmHg 51%
12:00 +23°C° 0 mm 4 m/s 743 mmHg 49%
13:00 +25°C° 0 mm 4 m/s 742 mmHg 47%
14:00 +26°C° 0 mm 4 m/s 742 mmHg 44%
15:00 +25°C° 0 mm 4 m/s 742 mmHg 47%
16:00 +25°C° 0 mm 3 m/s 742 mmHg 50%
17:00 +25°C° 0 mm 2 m/s 741 mmHg 53%
18:00 +22°C° 0 mm 3 m/s 741 mmHg 58%
19:00 +20°C° 0 mm 3 m/s 741 mmHg 62%
20:00 +19°C° 0 mm 3 m/s 741 mmHg 67%
21:00 +18°C° 0 mm 3 m/s 741 mmHg 68%
22:00 +18°C° 0 mm 3 m/s 741 mmHg 69%
23:00 +17°C° 0 mm 3 m/s 741 mmHg 71%

24 Septembrie, Joi

Timp Temperatura Precipitaţii Vânt Presiune Umiditate
00:00 +17°C° 0 mm 3 m/s 741 mmHg 72%
01:00 +16°C° 0 mm 3 m/s 741 mmHg 72%
02:00 +16°C° 0 mm 3 m/s 741 mmHg 73%
03:00 +14°C° 0 mm 3 m/s 741 mmHg 73%
04:00 +14°C° 0 mm 3 m/s 741 mmHg 73%
05:00 +14°C° 0 mm 3 m/s 741 mmHg 73%
06:00 +15°C° 0 mm 4 m/s 741 mmHg 70%
07:00 +15°C° 0 mm 4 m/s 741 mmHg 68%
08:00 +17°C° 0 mm 4 m/s 742 mmHg 65%
09:00 +19°C° 0 mm 4 m/s 742 mmHg 61%
10:00 +20°C° 0 mm 4 m/s 742 mmHg 58%
11:00 +22°C° 0 mm 4 m/s 742 mmHg 54%
12:00 +23°C° 0 mm 4 m/s 742 mmHg 52%
13:00 +26°C° 0 mm 4 m/s 742 mmHg 49%
14:00 +27°C° 0 mm 4 m/s 742 mmHg 47%
15:00 +26°C° 0.2 mm 3 m/s 742 mmHg 51%
16:00 +26°C° 0.2 mm 3 m/s 742 mmHg 55%
17:00 +25°C° 0.2 mm 3 m/s 742 mmHg 59%
18:00 +23°C° 0.8 mm 2 m/s 742 mmHg 66%
19:00 +20°C° 0.8 mm 2 m/s 742 mmHg 74%
20:00 +19°C° 0.8 mm 2 m/s 742 mmHg 81%
21:00 +18°C° 0.1 mm 2 m/s 743 mmHg 82%
22:00 +19°C° 0.1 mm 1 m/s 743 mmHg 83%
23:00 +19°C° 0.1 mm 1 m/s 743 mmHg 83%

25 Septembrie, Vineri

Timp Temperatura Precipitaţii Vânt Presiune Umiditate
00:00 +17°C° 0 mm 2 m/s 743 mmHg 84%
01:00 +17°C° 0 mm 2 m/s 743 mmHg 86%
02:00 +17°C° 0 mm 2 m/s 743 mmHg 87%
03:00 +16°C° 0 mm 2 m/s 742 mmHg 88%
04:00 +16°C° 0 mm 2 m/s 742 mmHg 90%
05:00 +16°C° 0 mm 3 m/s 742 mmHg 91%
06:00 +16°C° 0 mm 3 m/s 742 mmHg 89%
07:00 +17°C° 0 mm 4 m/s 742 mmHg 87%
08:00 +17°C° 0 mm 4 m/s 742 mmHg 86%
09:00 +19°C° 0 mm 5 m/s 742 mmHg 79%
10:00 +20°C° 0 mm 6 m/s 741 mmHg 72%
11:00 +22°C° 0 mm 6 m/s 741 mmHg 66%
12:00 +23°C° 0 mm 7 m/s 741 mmHg 60%
13:00 +24°C° 0 mm 8 m/s 740 mmHg 54%
14:00 +27°C° 0 mm 8 m/s 740 mmHg 49%
15:00 +26°C° 0 mm 7 m/s 739 mmHg 51%
16:00 +24°C° 0 mm 6 m/s 738 mmHg 53%
17:00 +25°C° 0 mm 5 m/s 738 mmHg 56%
18:00 +23°C° 0 mm 6 m/s 738 mmHg 57%
19:00 +22°C° 0 mm 6 m/s 737 mmHg 58%
20:00 +22°C° 0 mm 6 m/s 737 mmHg 59%
21:00 +21°C° 0.1 mm 6 m/s 737 mmHg 63%
22:00 +20°C° 0.1 mm 5 m/s 737 mmHg 67%
23:00 +20°C° 0.1 mm 5 m/s 737 mmHg 70%
Arată mai mult